Weather History for Mullan Pass, ID

Change the Weather History Date:

Sunday, October 28, 2012

  Actual Average (K3TH) Record (K3TH)
Temperature  
Mean Temperature 35 °F -  
Max Temperature 37 °F 48 °F 55 °F (2000)
Min Temperature 33 °F 33 °F 36 °F (1997)
Degree Days  
Heating Degree Days 30    
Moisture  
Dew Point 36 °F    
Average Humidity 97    
Maximum Humidity 100    
Minimum Humidity 87    
Precipitation  
Precipitation 0.20 in - - ()
Sea Level Pressure  
Sea Level Pressure 29.86 in    
Wind  
Wind Speed 9 mph (WSW)    
Max Wind Speed 16 mph    
Max Gust Speed 30 mph    
Visibility 4 miles    
Events Fog , Rain    
Averages and records for this station are not official NWS values.
T = Trace of Precipitation, MM = Missing Value Source: NWS Daily Summary

Daily Weather History Graph

Daily Weather History Graph

Search for Another Location

Airport:

Trip Planner

Search our weather history database for the weather conditions in past years. The results will help you decide how hot, cold, wet, or windy it might be!

Date:

Astronomy

Oct. 28, 2012 Rise Set
Actual Time 7:21 AM PDT 5:30 PM PDT
Civil Twilight 6:49 AM PDT 6:02 PM PDT
Nautical Twilight 6:13 AM PDT 6:38 PM PDT
Astronomical Twilight 5:37 AM PDT 7:14 PM PDT
Moon 4:51 PM PDT (10/28) 6:16 AM PDT (10/28)
Length of Visible Light 11h 13m
Length of Day
10h 09m
Waxing Gibbous, 99% of the Moon is Illuminated
Oct 28
Waxing Gibbous
Oct 29
Full
Nov 6
Last Quarter
Nov 13
New
Nov 20
First Quarter

Hourly Weather History & Observations

Time (PDT) Temp. Windchill Dew Point Humidity Pressure Visibility Wind Dir Wind Speed Gust Speed Precip Events Conditions
12:00 AM 33.8 °F 27.0 °F 30.2 °F 87% 29.84 in 0.5 mi SSW 8.1 mph 17.3 mph 0.00 in Fog , Rain Light Freezing Rain
12:12 AM 33.8 °F 26.4 °F 30.2 °F 87% 29.84 in 0.2 mi SSW 9.2 mph - 0.00 in Fog , Rain Light Freezing Rain
12:28 AM 33.8 °F 26.4 °F 30.2 °F 87% 29.83 in 0.2 mi South 9.2 mph 18.4 mph 0.00 in Fog , Rain Light Freezing Rain
12:53 AM 34.0 °F 25.5 °F 30.9 °F 89% 29.74 in 0.2 mi SSW 11.5 mph 18.4 mph 0.00 in Fog , Rain Light Freezing Rain
1:21 AM 33.8 °F 28.6 °F 32.0 °F 93% 29.83 in 0.2 mi Variable 5.8 mph 21.9 mph 0.01 in Fog , Rain Light Freezing Rain
1:53 AM 34.0 °F 26.6 °F 32.0 °F 92% 29.74 in 0.2 mi South 9.2 mph - 0.02 in Fog , Rain Light Freezing Rain
2:53 AM 34.0 °F 25.0 °F 34.0 °F 100% 29.74 in 0.2 mi West 12.7 mph 27.6 mph 0.00 in Fog Fog
2:58 AM 33.8 °F 23.9 °F 33.8 °F 100% 29.84 in 0.5 mi West 15.0 mph 27.6 mph 0.00 in Fog , Rain Light Freezing Rain
3:28 AM 33.8 °F 25.8 °F 33.8 °F 100% 29.84 in 0.8 mi WSW 10.4 mph 21.9 mph 0.00 in Rain Light Rain
3:35 AM 33.8 °F 26.4 °F 33.8 °F 100% 29.84 in 0.5 mi West 9.2 mph 21.9 mph 0.00 in Fog , Rain Light Freezing Rain
3:53 AM 34.0 °F 25.0 °F 34.0 °F 100% 29.75 in 0.5 mi WSW 12.7 mph 25.3 mph 0.00 in Fog , Rain Light Freezing Rain
4:00 AM 35.6 °F 29.9 °F 35.6 °F 100% 29.84 in 0.2 mi Variable 6.9 mph 25.3 mph 0.00 in Fog , Rain Light Freezing Rain
4:18 AM 35.6 °F 28.6 °F 35.6 °F 100% 29.84 in 0.2 mi West 9.2 mph 27.6 mph 0.00 in Fog , Rain Light Freezing Rain
4:53 AM 36.0 °F 29.6 °F 36.0 °F 100% 29.75 in 0.2 mi West 8.1 mph 25.3 mph 0.00 in Fog , Rain Light Freezing Rain
5:53 AM 36.0 °F 29.6 °F 36.0 °F 100% 29.76 in 0.2 mi WSW 8.1 mph 27.6 mph 0.01 in Fog , Rain Light Freezing Rain
6:10 AM 35.6 °F 27.1 °F 35.6 °F 100% 29.86 in 0.5 mi West 12.7 mph 29.9 mph 0.01 in Fog , Rain Light Freezing Rain
6:21 AM 37.4 °F 30.3 °F 37.4 °F 100% 29.86 in 0.2 mi West 10.4 mph 17.3 mph 0.01 in Fog , Rain Light Freezing Rain
6:26 AM 37.4 °F 30.8 °F 37.4 °F 100% 29.86 in 0.5 mi West 9.2 mph 17.3 mph 0.01 in Fog , Rain Light Rain
6:40 AM 37.4 °F 31.4 °F 37.4 °F 100% 29.86 in 0.2 mi West 8.1 mph 26.5 mph 0.01 in Fog , Rain Light Rain
6:53 AM 37.0 °F 31.0 °F 37.0 °F 100% 29.76 in 0.2 mi WSW 8.1 mph - 0.01 in Fog , Rain Light Rain
7:23 AM 37.4 °F 31.4 °F 37.4 °F 100% 29.86 in 0.2 mi WSW 8.1 mph 23.0 mph 0.01 in Fog , Rain Light Rain
7:53 AM 37.0 °F 32.4 °F 37.0 °F 100% 29.77 in 0.2 mi Variable 5.8 mph 23.0 mph 0.01 in Fog , Rain Light Rain
8:02 AM 37.4 °F 31.4 °F 37.4 °F 100% 29.87 in 0.2 mi West 8.1 mph 23.0 mph 0.01 in Fog , Rain Light Rain
8:44 AM 37.4 °F 29.8 °F 37.4 °F 100% 29.88 in 0.2 mi WSW 11.5 mph 24.2 mph 0.02 in Fog , Rain Light Rain
8:53 AM 37.9 °F 30.5 °F 37.9 °F 100% 29.78 in 0.2 mi WSW 11.5 mph 26.5 mph 0.03 in Fog , Rain Light Rain
10:53 AM 37.9 °F 28.9 °F 37.9 °F 100% 29.79 in 0.5 mi SW 16.1 mph 28.8 mph 0.04 in Fog , Rain Light Rain
11:04 AM 37.4 °F 28.9 °F 37.4 °F 100% 29.91 in 1.2 mi WSW 13.8 mph 27.6 mph 0.00 in Rain Light Rain
11:18 AM 37.4 °F 30.3 °F 37.4 °F 100% 29.91 in 0.5 mi WSW 10.4 mph 20.7 mph 0.00 in Fog , Rain Light Rain
11:26 AM 37.4 °F 29.3 °F 37.4 °F 100% 29.91 in 1.8 mi WSW 12.7 mph 23.0 mph 0.00 in   Overcast
11:33 AM 37.4 °F 29.3 °F 37.4 °F 100% 29.91 in 10.0 mi West 12.7 mph 26.5 mph 0.00 in   Overcast
11:40 AM 37.4 °F 29.8 °F 37.4 °F 100% 29.91 in 10.0 mi WSW 11.5 mph 26.5 mph 0.00 in   Overcast
11:50 AM 37.4 °F 29.8 °F 37.4 °F 100% 29.92 in 10.0 mi WSW 11.5 mph 25.3 mph 0.00 in   Overcast
11:53 AM 37.0 °F 30.4 °F 37.0 °F 100% 29.80 in 10.0 mi West 9.2 mph 23.0 mph 0.00 in   Overcast
11:57 AM 37.4 °F 28.9 °F 37.4 °F 100% 29.91 in 10.0 mi WSW 13.8 mph 24.2 mph N/A   Overcast
12:53 PM 37.0 °F 31.0 °F 37.0 °F 100% 29.81 in 10.0 mi WSW 8.1 mph 23.0 mph N/A   Overcast
1:30 PM 37.4 °F 30.8 °F 35.6 °F 93% 29.93 in 10.0 mi West 9.2 mph 20.7 mph N/A   Overcast
1:53 PM 37.9 °F 32.1 °F 36.0 °F 93% 29.82 in 10.0 mi West 8.1 mph 20.7 mph N/A   Overcast
2:20 PM 37.4 °F 30.8 °F 35.6 °F 93% 29.93 in 10.0 mi West 9.2 mph 25.3 mph N/A   Overcast
2:34 PM 37.4 °F 29.8 °F 35.6 °F 93% 29.93 in 10.0 mi West 11.5 mph 25.3 mph N/A   Overcast
2:53 PM 37.9 °F 31.5 °F 36.0 °F 93% 29.82 in 10.0 mi West 9.2 mph 19.6 mph N/A   Overcast
3:04 PM 37.4 °F 31.4 °F 35.6 °F 93% 29.93 in 10.0 mi West 8.1 mph 20.7 mph N/A   Overcast
3:53 PM 37.0 °F 30.4 °F 36.0 °F 96% 29.83 in 10.0 mi WSW 9.2 mph - N/A   Overcast
4:06 PM 37.4 °F 30.8 °F 35.6 °F 93% 29.94 in 10.0 mi West 9.2 mph 17.3 mph N/A   Overcast
4:32 PM 37.4 °F 30.8 °F 35.6 °F 93% 29.94 in 10.0 mi WSW 9.2 mph 16.1 mph N/A   Overcast
4:53 PM 37.0 °F 30.4 °F 36.0 °F 96% 29.82 in 10.0 mi WSW 9.2 mph 16.1 mph N/A   Overcast
5:10 PM 37.4 °F 30.3 °F 35.6 °F 93% 29.94 in 10.0 mi WSW 10.4 mph 18.4 mph N/A   Overcast
5:53 PM 37.0 °F 29.8 °F 36.0 °F 96% 29.82 in 10.0 mi WSW 10.4 mph 16.1 mph N/A   Overcast
6:53 PM 37.0 °F 31.0 °F 36.0 °F 96% 29.83 in 10.0 mi WSW 8.1 mph - N/A   Overcast
7:09 PM 37.4 °F 31.4 °F 35.6 °F 93% 29.94 in 10.0 mi WSW 8.1 mph - N/A   Overcast
7:19 PM 37.4 °F 32.8 °F 35.6 °F 93% 29.94 in 10.0 mi Variable 5.8 mph 19.6 mph N/A   Overcast
7:27 PM 37.4 °F 32.1 °F 35.6 °F 93% 29.94 in 10.0 mi Variable 6.9 mph - N/A   Overcast
7:53 PM 37.0 °F 32.4 °F 36.0 °F 96% 29.83 in 10.0 mi Variable 5.8 mph - N/A   Overcast
8:53 PM 37.0 °F 34.5 °F 36.0 °F 96% 29.82 in 10.0 mi Variable 3.5 mph - N/A   Overcast
9:11 PM 37.4 °F 34.9 °F 37.4 °F 100% 29.94 in 9.0 mi Variable 3.5 mph - 0.00 in Rain Light Rain
9:53 PM 37.0 °F 29.8 °F 36.0 °F 96% 29.82 in 10.0 mi SW 10.4 mph 18.4 mph 0.00 in   Overcast
10:20 PM 37.4 °F 33.8 °F 37.4 °F 100% 29.94 in 2.5 mi Variable 4.6 mph - 0.01 in Rain Light Rain
10:34 PM 37.4 °F 33.8 °F 37.4 °F 100% 29.94 in 8.0 mi Variable 4.6 mph - 0.01 in Rain Light Rain
10:53 PM 37.0 °F 34.5 °F 37.0 °F 100% 29.82 in 1.8 mi WSW 3.5 mph - 0.03 in Rain Light Rain
10:56 PM 37.4 °F 34.9 °F 37.4 °F 100% 29.94 in 0.8 mi Variable 3.5 mph - 0.00 in Rain Light Rain
11:06 PM 37.4 °F 32.8 °F 37.4 °F 100% 29.94 in 1.5 mi SW 5.8 mph - 0.01 in Rain Light Rain
11:20 PM 37.4 °F 32.1 °F 37.4 °F 100% 29.93 in 2.5 mi SW 6.9 mph - 0.02 in Rain Light Rain
11:26 PM 37.4 °F 32.8 °F 37.4 °F 100% 29.93 in 2.5 mi Variable 5.8 mph - 0.03 in Rain Light Rain
11:33 PM 37.4 °F 33.8 °F 37.4 °F 100% 29.93 in 3.0 mi Variable 4.6 mph - 0.04 in Rain Light Rain
11:41 PM 37.4 °F 33.8 °F 37.4 °F 100% 29.92 in 1.8 mi SSW 4.6 mph - 0.04 in Rain Light Rain
11:50 PM 37.4 °F 33.8 °F 37.4 °F 100% 29.92 in 1.0 mi SSW 4.6 mph - 0.05 in Rain Light Rain
11:53 PM 37.0 °F 33.3 °F 37.0 °F 100% 29.80 in 1.0 mi Variable 4.6 mph - 0.05 in Rain Light Rain